Location: Wien
(48.2082°N, 16.3738°E)
Time: 19:28:05
(UTC+02:00)

SO-50 - Visible Passes

Search period start: 22 October 2019 00:00
Search period end: 31 October 2019 23:00
Orbit: 591 x 695 km, 64.6° (Epoch: 21 October)

Date Brightness Start Highest point End Pass type
(mag) Time Alt. Az. Time Alt. Az. Time Alt. Az.
22 Oct ? 03:53:19 18° NNE 03:53:19 18° NNE 03:54:41 10° NNE visible
22 Oct ? 05:30:57 13° NNW 05:32:01 14° NNW 05:34:36 10° NNE visible
23 Oct ? 04:17:48 17° N 04:17:48 17° N 04:19:32 10° NNE visible
23 Oct ? 05:56:09 10° NNW 05:57:56 12° N 05:59:42 10° NNE visible
24 Oct ? 04:42:17 15° N 04:42:17 15° N 04:44:22 10° NNE visible
24 Oct ? 06:22:13 10° NNW 06:23:53 12° N 06:25:34 10° NNE visible
25 Oct ? 03:29:07 11° NNE 03:29:07 11° NNE 03:29:21 10° NNE visible
25 Oct ? 05:06:45 12° NNW 05:07:15 12° N 05:09:20 10° NNE visible
25 Oct ? 06:47:26 10° NNW 06:49:49 13° NNE 06:52:10 10° NE visible
26 Oct ? 03:53:35 12° NNE 03:53:35 12° NNE 03:54:10 10° NNE visible
26 Oct ? 05:31:36 10° NNW 05:33:12 11° N 05:34:47 10° NNE visible
27 Oct ? 03:18:03 12° N 03:18:03 12° N 03:19:04 10° NNE visible
27 Oct ? 04:57:08 10° NNW 04:59:08 12° N 05:01:08 10° NE visible
28 Oct ? 03:42:30 12° N 03:42:30 12° N 03:44:12 10° NNE visible
28 Oct ? 05:22:07 10° NNW 05:25:01 15° NNE 05:27:51 10° ENE visible
29 Oct ? 04:06:59 10° NNW 04:08:27 12° N 04:10:10 10° NNE visible
29 Oct ? 05:46:58 10° NNW 05:50:44 22° NNE 05:54:23 10° E visible
30 Oct ? 04:31:54 10° NNW 04:34:22 14° NNE 04:36:48 10° NE visible
31 Oct ? 03:18:20 11° N 03:18:20 11° N 03:19:20 10° NNE visible
31 Oct ? 04:56:47 10° NNW 05:00:09 18° NNE 05:03:28 10° ENE visible
